Weather History for Three Rivers, MI

Change the Weather History Date:

Saturday, June 21, 2014

  Actual Average Record
Temperature  
Mean Temperature 70 °F -  
Max Temperature 79 °F 81 °F 99 °F (1953)
Min Temperature 60 °F 57 °F 40 °F (1963)
Cooling Degree Days 4    
Growing Degree Days 20 (Base 50)    
Moisture  
Dew Point 64 °F    
Average Humidity 86    
Maximum Humidity 100    
Minimum Humidity 62    
Precipitation  
Precipitation 0.00 in - - ()
Sea Level Pressure  
Sea Level Pressure 29.97 in    
Wind  
Wind Speed 3 mph (East)    
Max Wind Speed 8 mph    
Max Gust Speed -    
Visibility 7 miles    
Events Rain    
Averages and records for this station are not official NWS values.
T = Trace of Precipitation, MM = Missing Value Source: NWS Daily Summary

Daily Weather History Graph

Daily Weather History Graph

Search for Another Location

Airport:

Trip Planner

Search our weather history database for the weather conditions in past years. The results will help you decide how hot, cold, wet, or windy it might be!

Date:

Astronomy

Jun. 21, 2014 Rise Set
Actual Time 6:07 AM EDT 9:21 PM EDT
Civil Twilight 5:32 AM EDT 9:55 PM EDT
Nautical Twilight 4:48 AM EDT 10:40 PM EDT
Astronomical Twilight 3:54 AM EDT 11:33 PM EDT
Moon 2:24 AM EDT (6/21) 3:55 PM EDT (6/21)
Length of Visible Light 16h 23m
Length of Day
15h 14m
Waning Crescent, 30% of the Moon is Illuminated
Jun 21
Waning Crescent
Jun 27
New
Jul 5
First Quarter
Jul 12
Full
Jul 18
Last Quarter

Hourly Weather History & Observations

Time (EDT) Temp. Dew Point Humidity Pressure Visibility Wind Dir Wind Speed Gust Speed Precip Events Conditions
12:15 AM 64.0 °F 61.9 °F 93% 29.97 in 7.0 mi ENE 4.6 mph - N/A   Overcast
12:35 AM 63.7 °F 61.5 °F 93% 29.97 in 7.0 mi ENE 5.8 mph - N/A   Overcast
1:14 AM 63.5 °F 61.2 °F 92% 29.97 in 7.0 mi ESE 3.5 mph - N/A   Overcast
1:35 AM 63.5 °F 61.2 °F 92% 29.96 in 7.0 mi East 3.5 mph - N/A   Overcast
1:55 AM 63.1 °F 61.0 °F 93% 29.96 in 5.0 mi Calm Calm - N/A   Overcast
2:14 AM 63.1 °F 61.2 °F 93% 29.95 in 5.0 mi Calm Calm - N/A   Overcast
2:35 AM 62.8 °F 61.2 °F 94% 29.96 in 4.0 mi Calm Calm - N/A   Overcast
2:55 AM 62.6 °F 61.5 °F 96% 29.95 in 3.0 mi Calm Calm - N/A   Overcast
3:15 AM 62.6 °F 61.7 °F 97% 29.95 in 3.0 mi North 3.5 mph - N/A   Overcast
3:35 AM 62.2 °F 61.7 °F 98% 29.95 in 2.0 mi North 3.5 mph - N/A   Overcast
3:55 AM 62.1 °F 61.7 °F 99% 29.97 in 1.2 mi North 3.5 mph - N/A   Overcast
4:15 AM 61.9 °F 61.7 °F 99% 29.97 in 1.0 mi North 3.5 mph - N/A   Overcast
4:55 AM 61.7 °F 61.7 °F 100% 29.99 in 1.8 mi NNE 4.6 mph - N/A   Overcast
5:15 AM 61.7 °F 61.7 °F 100% 29.99 in 1.5 mi Calm Calm - N/A   Overcast
5:35 AM 61.2 °F 61.2 °F 100% 30.00 in 1.8 mi NNE 3.5 mph - N/A   Overcast
5:54 AM 61.0 °F 61.0 °F 100% 30.01 in 1.5 mi North 4.6 mph - N/A   Overcast
6:15 AM 60.8 °F 60.8 °F 100% 30.02 in 1.5 mi NE 4.6 mph - N/A   Overcast
6:35 AM 60.8 °F 60.8 °F 100% 30.02 in 1.2 mi Calm Calm - N/A   Overcast
6:55 AM 60.8 °F 60.8 °F 100% 30.02 in 1.5 mi ENE 3.5 mph - N/A   Overcast
7:15 AM 60.8 °F 60.8 °F 100% 30.02 in 2.5 mi NE 4.6 mph - N/A   Overcast
7:34 AM 61.0 °F 61.0 °F 100% 30.02 in 3.0 mi East 3.5 mph - N/A   Overcast
7:55 AM 61.7 °F 61.7 °F 100% 30.01 in 4.0 mi East 3.5 mph - N/A   Overcast
8:15 AM 61.7 °F 61.3 °F 99% 30.01 in 4.0 mi ENE 4.6 mph - N/A   Overcast
8:34 AM 62.1 °F 61.2 °F 97% 30.01 in 5.0 mi East 3.5 mph - N/A   Overcast
8:55 AM 62.8 °F 61.2 °F 94% 30.01 in 5.0 mi Calm Calm - N/A   Overcast
9:15 AM 64.4 °F 61.7 °F 91% 30.02 in 10.0 mi Calm Calm - N/A   Overcast
9:34 AM 66.2 °F 62.4 °F 88% 30.02 in 10.0 mi SSE 4.6 mph - N/A   Mostly Cloudy
9:55 AM 66.7 °F 61.9 °F 84% 30.02 in 10.0 mi Calm Calm - N/A   Scattered Clouds
10:15 AM 67.1 °F 62.1 °F 84% 30.01 in 10.0 mi East 5.8 mph - N/A   Mostly Cloudy
10:34 AM 66.9 °F 62.1 °F 84% 30.02 in 10.0 mi ENE 6.9 mph - N/A   Overcast
10:55 AM 67.1 °F 62.4 °F 85% 30.02 in 10.0 mi Calm Calm - N/A   Overcast
11:15 AM 67.1 °F 62.2 °F 84% 30.02 in 10.0 mi East 3.5 mph - N/A   Overcast
11:35 AM 67.8 °F 62.6 °F 83% 30.02 in 10.0 mi East 4.6 mph - N/A   Overcast
11:55 AM 68.4 °F 62.2 °F 81% 30.03 in 10.0 mi Calm Calm - N/A   Overcast
12:15 PM 69.8 °F 63.0 °F 79% 30.03 in 10.0 mi Calm Calm - N/A   Overcast
12:35 PM 70.7 °F 63.1 °F 77% 30.01 in 10.0 mi ESE 3.5 mph - N/A   Mostly Cloudy
12:55 PM 71.6 °F 64.4 °F 78% 30.00 in 10.0 mi SSE 4.6 mph - N/A   Scattered Clouds
1:15 PM 71.4 °F 63.9 °F 77% 29.98 in 10.0 mi Calm Calm - N/A   Scattered Clouds
1:35 PM 72.9 °F 64.9 °F 76% 30.00 in 10.0 mi SE 3.5 mph - N/A   Scattered Clouds
1:55 PM 74.8 °F 65.3 °F 72% 30.00 in 10.0 mi SW 3.5 mph - N/A   Mostly Cloudy
2:15 PM 75.0 °F 66.0 °F 73% 29.98 in 10.0 mi SE 4.6 mph - N/A   Scattered Clouds
2:35 PM 75.2 °F 66.2 °F 73% 29.97 in 10.0 mi SSE 4.6 mph - N/A   Clear
2:55 PM 76.3 °F 66.7 °F 72% 29.96 in 10.0 mi SE 5.8 mph - N/A   Clear
3:15 PM 75.6 °F 66.7 °F 74% 29.96 in 10.0 mi SSW 5.8 mph - N/A   Clear
3:35 PM 76.1 °F 66.6 °F 72% 29.96 in 10.0 mi SSW 3.5 mph - N/A   Clear
3:55 PM 77.2 °F 66.7 °F 70% 29.96 in 10.0 mi WSW 3.5 mph - N/A   Scattered Clouds
4:14 PM 77.7 °F 66.7 °F 69% 29.96 in 10.0 mi WSW 3.5 mph - N/A   Scattered Clouds
4:35 PM 79.0 °F 67.1 °F 67% 29.95 in 10.0 mi SW 4.6 mph - N/A   Clear
4:55 PM 79.2 °F 67.1 °F 66% 29.94 in 10.0 mi SSW 4.6 mph - N/A   Clear
5:14 PM 79.5 °F 66.4 °F 64% 29.94 in 10.0 mi NW 5.8 mph - N/A   Clear
5:35 PM 79.9 °F 65.7 °F 62% 29.94 in 10.0 mi WNW 3.5 mph - N/A   Clear
5:55 PM 79.7 °F 65.8 °F 62% 29.92 in 10.0 mi Calm Calm - N/A   Clear
6:14 PM 78.8 °F 67.3 °F 68% 29.91 in 10.0 mi Calm Calm - N/A   Clear
6:35 PM 78.4 °F 67.1 °F 68% 29.90 in 10.0 mi ENE 5.8 mph - N/A   Clear
6:55 PM 77.9 °F 66.9 °F 69% 29.89 in 10.0 mi ESE 3.5 mph - N/A   Clear
7:14 PM 77.5 °F 66.7 °F 69% 29.90 in 10.0 mi Calm Calm - N/A   Clear
7:35 PM 77.0 °F 66.9 °F 71% 29.91 in 10.0 mi Calm Calm - N/A   Clear
7:55 PM 76.1 °F 68.0 °F 76% 29.90 in 10.0 mi ESE 3.5 mph - N/A   Clear
8:14 PM 75.4 °F 67.6 °F 77% 29.91 in 10.0 mi Calm Calm - N/A   Clear
8:35 PM 74.7 °F 68.2 °F 80% 29.91 in 10.0 mi Calm Calm - N/A   Clear
8:55 PM 74.5 °F 69.3 °F 84% 29.94 in 10.0 mi WNW 3.5 mph - N/A Rain Light Rain
9:15 PM 72.0 °F 69.1 °F 91% 29.94 in 7.0 mi Calm Calm - N/A Rain Rain
9:35 PM 72.1 °F 70.2 °F 93% 29.94 in 5.0 mi Calm Calm - N/A Rain Rain
9:55 PM 70.9 °F 69.8 °F 96% 29.95 in 5.0 mi SSE 3.5 mph - N/A Rain Rain
10:15 PM 71.4 °F 69.8 °F 95% 29.95 in 7.0 mi South 8.1 mph - N/A Rain Rain
10:35 PM 69.8 °F 67.8 °F 93% 29.95 in 7.0 mi SSW 6.9 mph - N/A Rain Rain
10:54 PM 68.9 °F 67.3 °F 95% 29.96 in 7.0 mi Calm Calm - N/A Rain Light Rain
11:15 PM 68.5 °F 66.9 °F 95% 29.95 in 10.0 mi Calm Calm - N/A   Overcast
11:35 PM 68.2 °F 67.1 °F 96% 29.94 in 10.0 mi Calm Calm - N/A   Overcast
11:54 PM 68.2 °F 66.9 °F 96% 29.93 in 10.0 mi Calm Calm - N/A   Mostly Cloudy